timestamp,surface_pressure_avg,surface_temp_avg,battery_voltage,lat,long
2018-11-15 00:00:00+00:00,214.2814,7.89,12.97,47.84626,-54.09684
2018-11-15 00:10:00+00:00,210.0698,7.9,12.89,47.84626,-54.09684
2018-11-15 00:20:00+00:00,215.7164,7.89,12.97,47.84626,-54.09684
2018-11-15 00:30:00+00:00,209.3398,7.85,12.97,47.84626,-54.09684
2018-11-15 00:40:00+00:00,191.9764,7.84,13.05,47.84626,-54.09684
2018-11-15 00:50:00+00:00,195.6282,7.82,13.05,47.84626,-54.09684
2018-11-15 01:00:00+00:00,212.0081,7.8,12.97,47.84626,-54.09684
2018-11-15 01:10:00+00:00,208.6831,7.8,12.89,47.84626,-54.09684
2018-11-15 01:20:00+00:00,204.8798,7.73,12.97,47.84626,-54.09684
2018-11-15 01:30:00+00:00,220.6481,7.72,12.97,47.84626,-54.09684
2018-11-15 01:40:00+00:00,235.7914,7.7,12.97,47.84626,-54.09684
2018-11-15 01:50:00+00:00,231.4648,7.76,12.97,47.84626,-54.09684
2018-11-15 02:00:00+00:00,239.5098,7.79,12.97,47.84626,-54.09684
2018-11-15 02:10:00+00:00,261.0814,7.73,12.81,47.84626,-54.09684
2018-11-15 02:20:00+00:00,264.6597,7.73,12.97,47.84626,-54.09684
2018-11-15 02:30:00+00:00,267.2598,7.79,12.97,47.84626,-54.09684
2018-11-15 02:40:00+00:00,281.1431,7.8,12.97,47.84626,-54.09684
2018-11-15 02:50:00+00:00,290.688,7.79,12.97,47.84626,-54.09684
2018-11-15 03:00:00+00:00,287.303,7.7,12.89,47.84626,-54.09684
2018-11-15 03:10:00+00:00,289.1281,7.7,12.81,47.84626,-54.09684
2018-11-15 03:20:00+00:00,299.848,7.6,12.89,47.84626,-54.09684
2018-11-15 03:30:00+00:00,298.8246,7.5,12.89,47.84626,-54.09684
2018-11-15 03:40:00+00:00,291.6848,7.57,12.97,47.84626,-54.09684
2018-11-15 03:50:00+00:00,293.108,7.6,12.97,47.84626,-54.09684
2018-11-15 04:00:00+00:00,299.3664,7.61,12.89,47.84626,-54.09684
2018-11-15 04:10:00+00:00,294.6597,7.6,12.81,47.84626,-54.09684
2018-11-15 04:20:00+00:00,291.2397,7.6,12.89,47.84626,-54.09684
2018-11-15 04:30:00+00:00,292.8981,7.6,12.89,47.84626,-54.09684
2018-11-15 04:40:00+00:00,296.8947,7.6,12.89,47.84626,-54.09684
2018-11-15 04:50:00+00:00,295.2631,7.58,12.89,47.84626,-54.09684
2018-11-15 05:00:00+00:00,298.603,7.58,12.81,47.84626,-54.09684
2018-11-15 05:10:00+00:00,306.7596,7.58,12.73,47.84626,-54.09684
2018-11-15 05:20:00+00:00,308.9797,7.54,12.81,47.84626,-54.09684
2018-11-15 05:30:00+00:00,302.7714,7.5,12.89,47.84626,-54.09684
2018-11-15 05:40:00+00:00,305.2631,7.5,12.89,47.84626,-54.09684
2018-11-15 05:50:00+00:00,307.758,7.5,12.89,47.84626,-54.09684
2018-11-15 06:00:00+00:00,304.1313,7.5,12.81,47.84626,-54.09684
2018-11-15 06:10:00+00:00,300.3613,7.43,12.73,47.84626,-54.09684
2018-11-15 06:20:00+00:00,300.993,7.45,12.81,47.84626,-54.09684
2018-11-15 06:30:00+00:00,297.7197,7.46,12.81,47.84626,-54.09684
2018-11-15 06:40:00+00:00,285.2864,7.4,12.89,47.84626,-54.09684
2018-11-15 06:50:00+00:00,273.903,7.4,12.89,47.84626,-54.09684
2018-11-15 07:00:00+00:00,265.8514,7.4,12.81,47.84626,-54.09684
2018-11-15 07:10:00+00:00,259.6214,7.4,12.73,47.84626,-54.09684
2018-11-15 07:20:00+00:00,251.1398,7.4,12.81,47.84626,-54.09684
2018-11-15 07:30:00+00:00,246.1614,7.4,12.81,47.84626,-54.09684
2018-11-15 07:40:00+00:00,240.2714,7.4,12.81,47.84626,-54.09684
2018-11-15 07:50:00+00:00,239.3881,7.4,12.89,47.84626,-54.09684
2018-11-15 08:00:00+00:00,241.2098,7.4,12.81,47.84626,-54.09684
2018-11-15 08:10:00+00:00,242.0031,7.39,12.73,47.84626,-54.09684
2018-11-15 08:20:00+00:00,244.813,7.3,12.81,47.84626,-54.09684
2018-11-15 08:30:00+00:00,252.4597,7.3,12.81,47.84626,-54.09684
2018-11-15 08:40:00+00:00,252.3931,7.34,12.81,47.84626,-54.09684
2018-11-15 08:50:00+00:00,248.7881,7.3,12.89,47.84626,-54.09684
2018-11-15 09:00:00+00:00,250.5631,7.3,12.81,47.84626,-54.09684
2018-11-15 09:10:00+00:00,250.1314,7.3,12.73,47.84626,-54.09684
2018-11-15 09:20:00+00:00,245.2365,7.3,12.81,47.84626,-54.09684
2018-11-15 09:30:00+00:00,243.4014,7.3,12.81,47.84626,-54.09684
2018-11-15 09:40:00+00:00,241.3581,7.29,12.81,47.84626,-54.09684
2018-11-15 09:50:00+00:00,238.1481,7.27,12.89,47.84626,-54.09684
2018-11-15 10:00:00+00:00,236.6231,7.3,12.81,47.84626,-54.09684
2018-11-15 10:10:00+00:00,238.7198,7.3,12.73,47.84626,-54.09684
2018-11-15 10:20:00+00:00,234.6098,7.2,12.81,47.84626,-54.09684
2018-11-15 10:30:00+00:00,230.3564,7.25,12.81,47.84626,-54.09684
2018-11-15 10:40:00+00:00,234.5747,7.26,12.81,47.84626,-54.09684
2018-11-15 10:50:00+00:00,238.4514,7.2,12.81,47.84626,-54.09684
2018-11-15 11:00:00+00:00,236.3464,7.2,12.81,47.84626,-54.09684
2018-11-15 11:10:00+00:00,236.2897,7.2,12.73,47.84626,-54.09684
2018-11-15 11:20:00+00:00,239.3098,7.2,12.81,47.84626,-54.09684
2018-11-15 11:30:00+00:00,245.5097,7.2,12.81,47.84626,-54.09684
2018-11-15 11:40:00+00:00,244.6514,7.1,12.97,47.84626,-54.09684
2018-11-15 11:50:00+00:00,243.0064,7.1,13.05,47.84626,-54.09684
2018-11-15 12:00:00+00:00,247.6281,7.1,13.29,47.84626,-54.09684
2018-11-15 12:10:00+00:00,257.3281,7.15,14.16,47.84626,-54.09684
2018-11-15 12:20:00+00:00,255.2864,7.16,16.23,47.84626,-54.09684
2018-11-15 12:30:00+00:00,257.6764,7.12,15.67,47.84626,-54.09684
2018-11-15 12:40:00+00:00,262.4414,7.11,16.71,47.84626,-54.09684
2018-11-15 12:50:00+00:00,266.1281,7.1,16.23,47.84626,-54.09684
2018-11-15 13:00:00+00:00,261.6464,7.1,16.63,47.84626,-54.09684
2018-11-15 13:10:00+00:00,268.1864,7.09,16.47,47.84626,-54.09684
2018-11-15 13:20:00+00:00,271.7597,7.09,16.55,47.84626,-54.09684
2018-11-15 13:30:00+00:00,271.3614,7.08,15.35,47.84626,-54.09684
2018-11-15 13:40:00+00:00,274.8547,7.1,15.67,47.84626,-54.09684
2018-11-15 13:50:00+00:00,287.303,7.1,15.6,47.84626,-54.09684
2018-11-15 14:00:00+00:00,288.8114,7.1,15.11,47.84626,-54.09684
2018-11-15 14:10:00+00:00,289.4581,7.05,15.11,47.84626,-54.09684
2018-11-15 14:20:00+00:00,299.383,7.1,15.27,47.84626,-54.09684
2018-11-15 14:30:00+00:00,311.7497,7.1,15.2,47.84626,-54.09684
2018-11-15 14:40:00+00:00,314.828,7.16,15.2,47.84626,-54.09684
2018-11-15 14:50:00+00:00,323.7047,7.1,15.11,47.84626,-54.09684
2018-11-15 15:00:00+00:00,335.363,7.1,14.96,47.84626,-54.09684
2018-11-15 15:10:00+00:00,337.5229,7.1,14.64,47.84626,-54.09684
2018-11-15 15:20:00+00:00,337.0662,7.1,14.56,47.84626,-54.09684
2018-11-15 15:30:00+00:00,347.048,7.1,14.64,47.84626,-54.09684
2018-11-15 15:40:00+00:00,355.638,7.1,14.64,47.84626,-54.09684
2018-11-15 15:50:00+00:00,353.1595,7.1,14.64,47.84626,-54.09684
2018-11-15 16:00:00+00:00,352.663,7.1,14.48,47.84626,-54.09684
2018-11-15 16:10:00+00:00,360.723,7.1,14.32,47.84626,-54.09684
2018-11-15 16:20:00+00:00,365.5513,7.09,14.4,47.84626,-54.09684
2018-11-15 16:30:00+00:00,364.1529,7.06,14.4,47.84626,-54.09684
2018-11-15 16:40:00+00:00,360.6029,7.05,14.48,47.84626,-54.09684
2018-11-15 16:50:00+00:00,361.7612,7.02,14.48,47.84626,-54.09684
2018-11-15 17:00:00+00:00,366.2496,7.0,14.4,47.84626,-54.09684
2018-11-15 17:10:00+00:00,364.1979,7.0,14.32,47.84626,-54.09684
2018-11-15 17:20:00+00:00,364.7029,7.0,14.4,47.84626,-54.09684
2018-11-15 17:30:00+00:00,370.5179,7.0,14.32,47.84626,-54.09684
2018-11-15 17:40:00+00:00,372.5246,7.0,14.32,47.84626,-54.09684
2018-11-15 17:50:00+00:00,371.6447,7.0,14.32,47.84626,-54.09684
2018-11-15 18:00:00+00:00,372.8997,6.99,14.24,47.84626,-54.09684
2018-11-15 18:10:00+00:00,374.2147,7.0,14.08,47.84626,-54.09684
2018-11-15 18:20:00+00:00,374.0146,6.94,14.08,47.84626,-54.09684
2018-11-15 18:30:00+00:00,371.3546,6.94,14.08,47.84626,-54.09684
2018-11-15 18:40:00+00:00,373.3896,6.98,14.0,47.84626,-54.09684
2018-11-15 18:50:00+00:00,374.6078,7.0,14.0,47.84626,-54.09684
2018-11-15 19:00:00+00:00,363.0629,7.0,13.84,47.84626,-54.09684
2018-11-15 19:10:00+00:00,352.9996,7.0,13.68,47.84626,-54.09684
2018-11-15 19:20:00+00:00,358.8846,7.0,13.68,47.84626,-54.09684
2018-11-15 19:30:00+00:00,354.5714,7.0,13.68,47.84626,-54.09684
2018-11-15 19:40:00+00:00,342.7146,7.0,13.6,47.84626,-54.09684
2018-11-15 19:50:00+00:00,341.5279,7.0,13.6,47.84626,-54.09684
2018-11-15 20:00:00+00:00,342.5179,7.0,13.44,47.84626,-54.09684
2018-11-15 20:10:00+00:00,327.3114,7.0,13.29,47.84626,-54.09684
2018-11-15 20:20:00+00:00,318.7963,7.0,13.29,47.84626,-54.09684
2018-11-15 20:30:00+00:00,319.7363,7.0,13.29,47.84626,-54.09684
2018-11-15 20:40:00+00:00,320.7413,7.0,13.29,47.84626,-54.09684
2018-11-15 20:50:00+00:00,315.0346,6.92,13.29,47.84626,-54.09684
2018-11-15 21:00:00+00:00,316.6047,6.98,13.21,47.84626,-54.09684
2018-11-15 21:10:00+00:00,318.7097,7.0,13.05,47.84626,-54.09684
2018-11-15 21:20:00+00:00,315.228,6.9,13.05,47.84626,-54.09684
2018-11-15 21:30:00+00:00,317.8929,7.0,13.05,47.84626,-54.09684
2018-11-15 21:40:00+00:00,326.528,7.04,13.13,47.84626,-54.09684
2018-11-15 21:50:00+00:00,324.2213,7.0,13.13,47.84626,-54.09684
2018-11-15 22:00:00+00:00,317.0031,6.9,13.05,47.84626,-54.09684
2018-11-15 22:10:00+00:00,320.9164,6.93,12.97,47.84626,-54.09684
2018-11-15 22:20:00+00:00,321.2079,6.92,13.05,47.84626,-54.09684
2018-11-15 22:30:00+00:00,311.4497,6.9,13.05,47.84626,-54.09684
2018-11-15 22:40:00+00:00,306.5597,6.9,13.05,47.84626,-54.09684
2018-11-15 22:50:00+00:00,314.2697,6.9,13.05,47.84626,-54.09684
2018-11-15 23:00:00+00:00,312.6829,6.9,12.97,47.84626,-54.09684
2018-11-15 23:10:00+00:00,303.2263,6.9,12.97,47.84626,-54.09684
2018-11-15 23:20:00+00:00,307.428,6.9,13.05,47.84626,-54.09684
2018-11-15 23:30:00+00:00,315.5997,6.9,13.05,47.84626,-54.09684
2018-11-15 23:40:00+00:00,314.6981,6.9,13.05,47.84626,-54.09684
2018-11-15 23:50:00+00:00,314.2347,6.89,13.05,47.84626,-54.09684
